History Data
| Date (GMT-7:00) | CPM | ACPM | uSv/h | Latitude | Longitude | Altitude | CO | CO2 | TVOC | HCHO | Air Pressure | Temperature | Humidity | Type |
|---|---|---|---|---|---|---|---|---|---|---|---|---|---|---|
| 2026-01-12 16:58:59 | 25 | 19.10 | 0.125000 | 41.649648 | 41.62752893 | 0 | 0 | 0 | 0 | 0 | 0 | 0 | 0 | STD5.60 |
| 2026-01-12 16:53:56 | 15 | 20.00 | 0.075000 | 41.649648 | 41.62752893 | 0 | 0 | 0 | 0 | 0 | 0 | 0 | 0 | STD5.60 |
| 2026-01-12 16:48:54 | 25 | 20.50 | 0.125000 | 41.649648 | 41.62752893 | 0 | 0 | 0 | 0 | 0 | 0 | 0 | 0 | STD5.60 |
| 2026-01-12 16:43:52 | 16 | 17.70 | 0.080000 | 41.649648 | 41.62752893 | 0 | 0 | 0 | 0 | 0 | 0 | 0 | 0 | STD5.60 |
| 2026-01-12 16:38:50 | 15 | 14.90 | 0.075000 | 41.649648 | 41.62752893 | 0 | 0 | 0 | 0 | 0 | 0 | 0 | 0 | STD5.60 |
| 2026-01-12 16:33:47 | 14 | 15.60 | 0.070000 | 41.649648 | 41.62752893 | 0 | 0 | 0 | 0 | 0 | 0 | 0 | 0 | STD5.60 |
| 2026-01-12 16:28:44 | 18 | 16.60 | 0.090000 | 41.649648 | 41.62752893 | 0 | 0 | 0 | 0 | 0 | 0 | 0 | 0 | STD5.60 |
| 2026-01-12 16:23:43 | 19 | 17.30 | 0.095000 | 41.649648 | 41.62752893 | 0 | 0 | 0 | 0 | 0 | 0 | 0 | 0 | STD5.60 |
| 2026-01-12 16:18:39 | 18 | 18.30 | 0.090000 | 41.649648 | 41.62752893 | 0 | 0 | 0 | 0 | 0 | 0 | 0 | 0 | STD5.60 |
| 2026-01-12 16:13:37 | 17 | 18.20 | 0.085000 | 41.649648 | 41.62752893 | 0 | 0 | 0 | 0 | 0 | 0 | 0 | 0 | STD5.60 |
| 2026-01-12 16:08:35 | 15 | 16.90 | 0.075000 | 41.649648 | 41.62752893 | 0 | 0 | 0 | 0 | 0 | 0 | 0 | 0 | STD5.60 |
| 2026-01-12 16:03:28 | 12 | 17.00 | 0.060000 | 41.649648 | 41.62752893 | 0 | 0 | 0 | 0 | 0 | 0 | 0 | 0 | STD5.60 |
| 2026-01-12 15:58:26 | 22 | 17.70 | 0.110000 | 41.649648 | 41.62752893 | 0 | 0 | 0 | 0 | 0 | 0 | 0 | 0 | STD5.60 |
| 2026-01-12 15:53:23 | 19 | 17.50 | 0.095000 | 41.649648 | 41.62752893 | 0 | 0 | 0 | 0 | 0 | 0 | 0 | 0 | STD5.60 |
| 2026-01-12 15:48:20 | 16 | 18.00 | 0.080000 | 41.649648 | 41.62752893 | 0 | 0 | 0 | 0 | 0 | 0 | 0 | 0 | STD5.60 |
| 2026-01-12 15:43:18 | 19 | 16.80 | 0.095000 | 41.649648 | 41.62752893 | 0 | 0 | 0 | 0 | 0 | 0 | 0 | 0 | STD5.60 |
| 2026-01-12 15:38:15 | 12 | 17.30 | 0.060000 | 41.649648 | 41.62752893 | 0 | 0 | 0 | 0 | 0 | 0 | 0 | 0 | STD5.60 |
| 2026-01-12 15:33:12 | 17 | 18.60 | 0.085000 | 41.649648 | 41.62752893 | 0 | 0 | 0 | 0 | 0 | 0 | 0 | 0 | STD5.60 |
| 2026-01-12 15:28:11 | 14 | 19.50 | 0.070000 | 41.649648 | 41.62752893 | 0 | 0 | 0 | 0 | 0 | 0 | 0 | 0 | STD5.60 |
| 2026-01-12 15:23:08 | 25 | 20.00 | 0.125000 | 41.649648 | 41.62752893 | 0 | 0 | 0 | 0 | 0 | 0 | 0 | 0 | STD5.60 |
| 2026-01-12 15:18:05 | 14 | 17.90 | 0.070000 | 41.649648 | 41.62752893 | 0 | 0 | 0 | 0 | 0 | 0 | 0 | 0 | STD5.60 |
| 2026-01-12 15:13:03 | 21 | 18.80 | 0.105000 | 41.649648 | 41.62752893 | 0 | 0 | 0 | 0 | 0 | 0 | 0 | 0 | STD5.60 |
| 2026-01-12 15:08:00 | 26 | 19.40 | 0.130000 | 41.649648 | 41.62752893 | 0 | 0 | 0 | 0 | 0 | 0 | 0 | 0 | STD5.60 |
| 2026-01-12 15:02:54 | 22 | 17.80 | 0.110000 | 41.649648 | 41.62752893 | 0 | 0 | 0 | 0 | 0 | 0 | 0 | 0 | STD5.60 |
| 2026-01-12 14:57:52 | 14 | 18.10 | 0.070000 | 41.649648 | 41.62752893 | 0 | 0 | 0 | 0 | 0 | 0 | 0 | 0 | STD5.60 |
| 2026-01-12 14:52:49 | 18 | 19.00 | 0.090000 | 41.649648 | 41.62752893 | 0 | 0 | 0 | 0 | 0 | 0 | 0 | 0 | STD5.60 |
| 2026-01-12 14:47:46 | 29 | 20.10 | 0.145000 | 41.649648 | 41.62752893 | 0 | 0 | 0 | 0 | 0 | 0 | 0 | 0 | STD5.60 |
| 2026-01-12 14:42:44 | 20 | 19.40 | 0.100000 | 41.649648 | 41.62752893 | 0 | 0 | 0 | 0 | 0 | 0 | 0 | 0 | STD5.60 |
| 2026-01-12 14:37:42 | 19 | 18.40 | 0.095000 | 41.649648 | 41.62752893 | 0 | 0 | 0 | 0 | 0 | 0 | 0 | 0 | STD5.60 |
| 2026-01-12 14:32:39 | 24 | 18.50 | 0.120000 | 41.649648 | 41.62752893 | 0 | 0 | 0 | 0 | 0 | 0 | 0 | 0 | STD5.60 |
| 2026-01-12 14:27:37 | 29 | 16.60 | 0.145000 | 41.649648 | 41.62752893 | 0 | 0 | 0 | 0 | 0 | 0 | 0 | 0 | STD5.60 |
| 2026-01-12 14:22:34 | 17 | 15.90 | 0.085000 | 41.649648 | 41.62752893 | 0 | 0 | 0 | 0 | 0 | 0 | 0 | 0 | STD5.60 |
| 2026-01-12 14:17:31 | 22 | 17.20 | 0.110000 | 41.649648 | 41.62752893 | 0 | 0 | 0 | 0 | 0 | 0 | 0 | 0 | STD5.60 |
| 2026-01-12 14:12:29 | 19 | 18.90 | 0.095000 | 41.649648 | 41.62752893 | 0 | 0 | 0 | 0 | 0 | 0 | 0 | 0 | STD5.60 |
| 2026-01-12 14:07:26 | 19 | 19.60 | 0.095000 | 41.649648 | 41.62752893 | 0 | 0 | 0 | 0 | 0 | 0 | 0 | 0 | STD5.60 |
| 2026-01-12 14:02:21 | 22 | 19.40 | 0.110000 | 41.649648 | 41.62752893 | 0 | 0 | 0 | 0 | 0 | 0 | 0 | 0 | STD5.60 |
| 2026-01-12 13:57:18 | 14 | 17.80 | 0.070000 | 41.649648 | 41.62752893 | 0 | 0 | 0 | 0 | 0 | 0 | 0 | 0 | STD5.60 |
| 2026-01-12 13:52:15 | 22 | 17.40 | 0.110000 | 41.649648 | 41.62752893 | 0 | 0 | 0 | 0 | 0 | 0 | 0 | 0 | STD5.60 |
| 2026-01-12 13:47:12 | 21 | 17.80 | 0.105000 | 41.649648 | 41.62752893 | 0 | 0 | 0 | 0 | 0 | 0 | 0 | 0 | STD5.60 |
| 2026-01-12 13:42:09 | 19 | 18.80 | 0.095000 | 41.649648 | 41.62752893 | 0 | 0 | 0 | 0 | 0 | 0 | 0 | 0 | STD5.60 |
| 2026-01-12 13:37:07 | 22 | 17.80 | 0.110000 | 41.649648 | 41.62752893 | 0 | 0 | 0 | 0 | 0 | 0 | 0 | 0 | STD5.60 |
| 2026-01-12 13:32:04 | 21 | 18.30 | 0.105000 | 41.649648 | 41.62752893 | 0 | 0 | 0 | 0 | 0 | 0 | 0 | 0 | STD5.60 |
| 2026-01-12 13:27:02 | 28 | 20.10 | 0.140000 | 41.649648 | 41.62752893 | 0 | 0 | 0 | 0 | 0 | 0 | 0 | 0 | STD5.60 |
| 2026-01-12 13:21:59 | 24 | 18.40 | 0.120000 | 41.649648 | 41.62752893 | 0 | 0 | 0 | 0 | 0 | 0 | 0 | 0 | STD5.60 |
| 2026-01-12 13:16:56 | 18 | 16.60 | 0.090000 | 41.649648 | 41.62752893 | 0 | 0 | 0 | 0 | 0 | 0 | 0 | 0 | STD5.60 |
| 2026-01-12 13:11:54 | 16 | 16.90 | 0.080000 | 41.649648 | 41.62752893 | 0 | 0 | 0 | 0 | 0 | 0 | 0 | 0 | STD5.60 |
| 2026-01-12 13:06:51 | 17 | 18.40 | 0.085000 | 41.649648 | 41.62752893 | 0 | 0 | 0 | 0 | 0 | 0 | 0 | 0 | STD5.60 |
| 2026-01-12 13:01:46 | 19 | 17.20 | 0.095000 | 41.649648 | 41.62752893 | 0 | 0 | 0 | 0 | 0 | 0 | 0 | 0 | STD5.60 |
| 2026-01-12 12:56:43 | 15 | 16.60 | 0.075000 | 41.649648 | 41.62752893 | 0 | 0 | 0 | 0 | 0 | 0 | 0 | 0 | STD5.60 |
| 2026-01-12 12:51:41 | 13 | 16.90 | 0.065000 | 41.649648 | 41.62752893 | 0 | 0 | 0 | 0 | 0 | 0 | 0 | 0 | STD5.60 |
| 2026-01-12 12:46:38 | 14 | 14.90 | 0.070000 | 41.649648 | 41.62752893 | 0 | 0 | 0 | 0 | 0 | 0 | 0 | 0 | STD5.60 |
| 2026-01-12 12:41:36 | 12 | 17.00 | 0.060000 | 41.649648 | 41.62752893 | 0 | 0 | 0 | 0 | 0 | 0 | 0 | 0 | STD5.60 |
| 2026-01-12 12:36:34 | 21 | 18.10 | 0.105000 | 41.649648 | 41.62752893 | 0 | 0 | 0 | 0 | 0 | 0 | 0 | 0 | STD5.60 |
| 2026-01-12 12:31:31 | 17 | 16.30 | 0.085000 | 41.649648 | 41.62752893 | 0 | 0 | 0 | 0 | 0 | 0 | 0 | 0 | STD5.60 |
| 2026-01-12 12:26:28 | 11 | 16.90 | 0.055000 | 41.649648 | 41.62752893 | 0 | 0 | 0 | 0 | 0 | 0 | 0 | 0 | STD5.60 |
| 2026-01-12 12:21:26 | 27 | 16.70 | 0.135000 | 41.649648 | 41.62752893 | 0 | 0 | 0 | 0 | 0 | 0 | 0 | 0 | STD5.60 |
| 2026-01-12 12:16:23 | 13 | 16.30 | 0.065000 | 41.649648 | 41.62752893 | 0 | 0 | 0 | 0 | 0 | 0 | 0 | 0 | STD5.60 |
| 2026-01-12 12:11:20 | 16 | 8.90 | 0.080000 | 41.649648 | 41.62752893 | 0 | 0 | 0 | 0 | 0 | 0 | 0 | 0 | STD5.60 |
| 2026-01-12 12:06:18 | 1 | 0.20 | 0.005000 | 41.649648 | 41.62752893 | 0 | 0 | 0 | 0 | 0 | 0 | 0 | 0 | STD5.60 |
| 2025-12-25 10:19:29 | 14 | 17.90 | 0.070000 | 41.649648 | 41.62752893 | 0 | 0 | 0 | 0 | 0 | 0 | 0 | 0 | STD5.60 |
| 2025-12-25 10:14:26 | 19 | 18.80 | 0.095000 | 41.649648 | 41.62752893 | 0 | 0 | 0 | 0 | 0 | 0 | 0 | 0 | STD5.60 |
| 2025-12-25 10:09:24 | 28 | 19.00 | 0.140000 | 41.649648 | 41.62752893 | 0 | 0 | 0 | 0 | 0 | 0 | 0 | 0 | STD5.60 |
| 2025-12-25 10:04:22 | 22 | 15.90 | 0.110000 | 41.649648 | 41.62752893 | 0 | 0 | 0 | 0 | 0 | 0 | 0 | 0 | STD5.60 |
| 2025-12-25 09:59:21 | 14 | 15.00 | 0.070000 | 41.649648 | 41.62752893 | 0 | 0 | 0 | 0 | 0 | 0 | 0 | 0 | STD5.60 |
| 2025-12-25 09:54:19 | 14 | 17.20 | 0.070000 | 41.649648 | 41.62752893 | 0 | 0 | 0 | 0 | 0 | 0 | 0 | 0 | STD5.60 |
| 2025-12-25 09:49:15 | 20 | 18.50 | 0.100000 | 41.649648 | 41.62752893 | 0 | 0 | 0 | 0 | 0 | 0 | 0 | 0 | STD5.60 |
| 2025-12-25 09:44:13 | 17 | 18.50 | 0.085000 | 41.649648 | 41.62752893 | 0 | 0 | 0 | 0 | 0 | 0 | 0 | 0 | STD5.60 |
| 2025-12-25 09:39:11 | 18 | 19.20 | 0.090000 | 41.649648 | 41.62752893 | 0 | 0 | 0 | 0 | 0 | 0 | 0 | 0 | STD5.60 |
| 2025-12-25 09:34:08 | 22 | 19.20 | 0.110000 | 41.649648 | 41.62752893 | 0 | 0 | 0 | 0 | 0 | 0 | 0 | 0 | STD5.60 |
| 2025-12-25 09:29:06 | 18 | 18.40 | 0.090000 | 41.649648 | 41.62752893 | 0 | 0 | 0 | 0 | 0 | 0 | 0 | 0 | STD5.60 |
| 2025-12-25 09:24:05 | 12 | 17.30 | 0.060000 | 41.649648 | 41.62752893 | 0 | 0 | 0 | 0 | 0 | 0 | 0 | 0 | STD5.60 |
| 2025-12-25 09:19:03 | 14 | 15.10 | 0.070000 | 41.649648 | 41.62752893 | 0 | 0 | 0 | 0 | 0 | 0 | 0 | 0 | STD5.60 |
| 2025-12-25 09:14:00 | 13 | 16.80 | 0.065000 | 41.649648 | 41.62752893 | 0 | 0 | 0 | 0 | 0 | 0 | 0 | 0 | STD5.60 |
| 2025-12-25 09:09:01 | 20 | 17.30 | 0.100000 | 41.649648 | 41.62752893 | 0 | 0 | 0 | 0 | 0 | 0 | 0 | 0 | STD5.60 |
| 2025-12-25 09:03:56 | 15 | 16.10 | 0.075000 | 41.649648 | 41.62752893 | 0 | 0 | 0 | 0 | 0 | 0 | 0 | 0 | STD5.60 |
| 2025-12-25 08:58:54 | 16 | 17.60 | 0.080000 | 41.649648 | 41.62752893 | 0 | 0 | 0 | 0 | 0 | 0 | 0 | 0 | STD5.60 |
| 2025-12-25 08:53:52 | 14 | 19.20 | 0.070000 | 41.649648 | 41.62752893 | 0 | 0 | 0 | 0 | 0 | 0 | 0 | 0 | STD5.60 |
| 2025-12-25 08:48:49 | 21 | 18.90 | 0.105000 | 41.649648 | 41.62752893 | 0 | 0 | 0 | 0 | 0 | 0 | 0 | 0 | STD5.60 |
| 2025-12-25 08:43:47 | 22 | 18.90 | 0.110000 | 41.649648 | 41.62752893 | 0 | 0 | 0 | 0 | 0 | 0 | 0 | 0 | STD5.60 |
| 2025-12-25 08:38:44 | 18 | 18.50 | 0.090000 | 41.649648 | 41.62752893 | 0 | 0 | 0 | 0 | 0 | 0 | 0 | 0 | STD5.60 |
| 2025-12-25 08:33:42 | 13 | 18.50 | 0.065000 | 41.649648 | 41.62752893 | 0 | 0 | 0 | 0 | 0 | 0 | 0 | 0 | STD5.60 |
| 2025-12-25 08:28:40 | 22 | 18.20 | 0.110000 | 41.649648 | 41.62752893 | 0 | 0 | 0 | 0 | 0 | 0 | 0 | 0 | STD5.60 |
| 2025-12-25 08:23:39 | 22 | 19.10 | 0.110000 | 41.649648 | 41.62752893 | 0 | 0 | 0 | 0 | 0 | 0 | 0 | 0 | STD5.60 |
| 2025-12-25 08:18:37 | 19 | 18.00 | 0.095000 | 41.649648 | 41.62752893 | 0 | 0 | 0 | 0 | 0 | 0 | 0 | 0 | STD5.60 |
| 2025-12-25 08:13:35 | 9 | 17.60 | 0.045000 | 41.649648 | 41.62752893 | 0 | 0 | 0 | 0 | 0 | 0 | 0 | 0 | STD5.60 |
| 2025-12-25 08:08:33 | 19 | 18.80 | 0.095000 | 41.649648 | 41.62752893 | 0 | 0 | 0 | 0 | 0 | 0 | 0 | 0 | STD5.60 |
| 2025-12-25 08:03:31 | 13 | 15.40 | 0.065000 | 41.649648 | 41.62752893 | 0 | 0 | 0 | 0 | 0 | 0 | 0 | 0 | STD5.60 |
| 2025-12-25 07:58:32 | 15 | 14.70 | 0.075000 | 41.649648 | 41.62752893 | 0 | 0 | 0 | 0 | 0 | 0 | 0 | 0 | STD5.60 |
| 2025-12-25 07:53:27 | 13 | 16.00 | 0.065000 | 41.649648 | 41.62752893 | 0 | 0 | 0 | 0 | 0 | 0 | 0 | 0 | STD5.60 |
| 2025-12-25 07:48:23 | 19 | 17.20 | 0.095000 | 41.649648 | 41.62752893 | 0 | 0 | 0 | 0 | 0 | 0 | 0 | 0 | STD5.60 |
| 2025-12-25 07:43:21 | 15 | 17.50 | 0.075000 | 41.649648 | 41.62752893 | 0 | 0 | 0 | 0 | 0 | 0 | 0 | 0 | STD5.60 |
| 2025-12-25 07:38:19 | 19 | 16.00 | 0.095000 | 41.649648 | 41.62752893 | 0 | 0 | 0 | 0 | 0 | 0 | 0 | 0 | STD5.60 |
| 2025-12-25 07:33:17 | 15 | 16.40 | 0.075000 | 41.649648 | 41.62752893 | 0 | 0 | 0 | 0 | 0 | 0 | 0 | 0 | STD5.60 |
| 2025-12-25 07:28:15 | 17 | 16.80 | 0.085000 | 41.649648 | 41.62752893 | 0 | 0 | 0 | 0 | 0 | 0 | 0 | 0 | STD5.60 |
| 2025-12-25 07:23:12 | 15 | 17.20 | 0.075000 | 41.649648 | 41.62752893 | 0 | 0 | 0 | 0 | 0 | 0 | 0 | 0 | STD5.60 |
| 2025-12-25 07:18:11 | 17 | 16.90 | 0.085000 | 41.649648 | 41.62752893 | 0 | 0 | 0 | 0 | 0 | 0 | 0 | 0 | STD5.60 |
| 2025-12-25 07:13:08 | 18 | 17.70 | 0.090000 | 41.649648 | 41.62752893 | 0 | 0 | 0 | 0 | 0 | 0 | 0 | 0 | STD5.60 |
| 2025-12-25 07:08:06 | 20 | 18.80 | 0.100000 | 41.649648 | 41.62752893 | 0 | 0 | 0 | 0 | 0 | 0 | 0 | 0 | STD5.60 |
| 2025-12-25 07:03:05 | 17 | 18.20 | 0.085000 | 41.649648 | 41.62752893 | 0 | 0 | 0 | 0 | 0 | 0 | 0 | 0 | STD5.60 |
| 2025-12-25 06:58:02 | 17 | 18.50 | 0.085000 | 41.649648 | 41.62752893 | 0 | 0 | 0 | 0 | 0 | 0 | 0 | 0 | STD5.60 |
| 2025-12-25 06:53:01 | 20 | 17.40 | 0.100000 | 41.649648 | 41.62752893 | 0 | 0 | 0 | 0 | 0 | 0 | 0 | 0 | STD5.60 |
| 2025-12-25 06:47:41 | 15 | 15.40 | 0.075000 | 41.649648 | 41.62752893 | 0 | 0 | 0 | 0 | 0 | 0 | 0 | 0 | STD5.60 |
| 2025-12-25 06:42:38 | 17 | 15.80 | 0.085000 | 41.649648 | 41.62752893 | 0 | 0 | 0 | 0 | 0 | 0 | 0 | 0 | STD5.60 |
| 2025-12-25 06:37:36 | 21 | 18.20 | 0.105000 | 41.649648 | 41.62752893 | 0 | 0 | 0 | 0 | 0 | 0 | 0 | 0 | STD5.60 |
| 2025-12-25 06:32:35 | 17 | 19.30 | 0.085000 | 41.649648 | 41.62752893 | 0 | 0 | 0 | 0 | 0 | 0 | 0 | 0 | STD5.60 |
| 2025-12-25 06:27:32 | 21 | 16.90 | 0.105000 | 41.649648 | 41.62752893 | 0 | 0 | 0 | 0 | 0 | 0 | 0 | 0 | STD5.60 |
| 2025-12-25 06:22:30 | 21 | 17.30 | 0.105000 | 41.649648 | 41.62752893 | 0 | 0 | 0 | 0 | 0 | 0 | 0 | 0 | STD5.60 |
| 2025-12-25 06:17:28 | 18 | 19.60 | 0.090000 | 41.649648 | 41.62752893 | 0 | 0 | 0 | 0 | 0 | 0 | 0 | 0 | STD5.60 |
| 2025-12-25 06:12:26 | 21 | 18.40 | 0.105000 | 41.649648 | 41.62752893 | 0 | 0 | 0 | 0 | 0 | 0 | 0 | 0 | STD5.60 |
| 2025-12-25 06:07:24 | 19 | 18.20 | 0.095000 | 41.649648 | 41.62752893 | 0 | 0 | 0 | 0 | 0 | 0 | 0 | 0 | STD5.60 |
| 2025-12-25 06:02:22 | 22 | 17.00 | 0.110000 | 41.649648 | 41.62752893 | 0 | 0 | 0 | 0 | 0 | 0 | 0 | 0 | STD5.60 |
| 2025-12-25 05:57:20 | 17 | 16.70 | 0.085000 | 41.649648 | 41.62752893 | 0 | 0 | 0 | 0 | 0 | 0 | 0 | 0 | STD5.60 |
| 2025-12-25 05:52:18 | 18 | 18.80 | 0.090000 | 41.649648 | 41.62752893 | 0 | 0 | 0 | 0 | 0 | 0 | 0 | 0 | STD5.60 |
| 2025-12-25 05:47:02 | 16 | 17.90 | 0.080000 | 41.649648 | 41.62752893 | 0 | 0 | 0 | 0 | 0 | 0 | 0 | 0 | STD5.60 |
| 2025-12-25 05:41:59 | 16 | 16.20 | 0.080000 | 41.649648 | 41.62752893 | 0 | 0 | 0 | 0 | 0 | 0 | 0 | 0 | STD5.60 |
| 2025-12-25 05:36:57 | 19 | 18.50 | 0.095000 | 41.649648 | 41.62752893 | 0 | 0 | 0 | 0 | 0 | 0 | 0 | 0 | STD5.60 |
| 2025-12-25 05:31:56 | 27 | 18.60 | 0.135000 | 41.649648 | 41.62752893 | 0 | 0 | 0 | 0 | 0 | 0 | 0 | 0 | STD5.60 |
| 2025-12-25 05:26:53 | 20 | 18.10 | 0.100000 | 41.649648 | 41.62752893 | 0 | 0 | 0 | 0 | 0 | 0 | 0 | 0 | STD5.60 |
| 2025-12-25 05:21:51 | 18 | 19.00 | 0.090000 | 41.649648 | 41.62752893 | 0 | 0 | 0 | 0 | 0 | 0 | 0 | 0 | STD5.60 |
| 2025-12-25 05:16:50 | 18 | 16.00 | 0.090000 | 41.649648 | 41.62752893 | 0 | 0 | 0 | 0 | 0 | 0 | 0 | 0 | STD5.60 |
| 2025-12-25 05:11:48 | 10 | 17.10 | 0.050000 | 41.649648 | 41.62752893 | 0 | 0 | 0 | 0 | 0 | 0 | 0 | 0 | STD5.60 |
| 2025-12-25 05:06:45 | 24 | 19.10 | 0.120000 | 41.649648 | 41.62752893 | 0 | 0 | 0 | 0 | 0 | 0 | 0 | 0 | STD5.60 |
| 2025-12-25 05:01:44 | 15 | 16.20 | 0.075000 | 41.649648 | 41.62752893 | 0 | 0 | 0 | 0 | 0 | 0 | 0 | 0 | STD5.60 |
| 2025-12-25 04:56:42 | 16 | 17.00 | 0.080000 | 41.649648 | 41.62752893 | 0 | 0 | 0 | 0 | 0 | 0 | 0 | 0 | STD5.60 |
| 2025-12-25 04:51:40 | 20 | 19.20 | 0.100000 | 41.649648 | 41.62752893 | 0 | 0 | 0 | 0 | 0 | 0 | 0 | 0 | STD5.60 |
| 2025-12-25 04:46:36 | 23 | 18.30 | 0.115000 | 41.649648 | 41.62752893 | 0 | 0 | 0 | 0 | 0 | 0 | 0 | 0 | STD5.60 |
| 2025-12-25 04:41:34 | 13 | 16.90 | 0.065000 | 41.649648 | 41.62752893 | 0 | 0 | 0 | 0 | 0 | 0 | 0 | 0 | STD5.60 |
| 2025-12-25 04:36:32 | 11 | 15.80 | 0.055000 | 41.649648 | 41.62752893 | 0 | 0 | 0 | 0 | 0 | 0 | 0 | 0 | STD5.60 |
| 2025-12-25 04:31:29 | 14 | 16.30 | 0.070000 | 41.649648 | 41.62752893 | 0 | 0 | 0 | 0 | 0 | 0 | 0 | 0 | STD5.60 |
| 2025-12-25 04:26:27 | 19 | 18.10 | 0.095000 | 41.649648 | 41.62752893 | 0 | 0 | 0 | 0 | 0 | 0 | 0 | 0 | STD5.60 |
| 2025-12-25 04:21:25 | 27 | 20.00 | 0.135000 | 41.649648 | 41.62752893 | 0 | 0 | 0 | 0 | 0 | 0 | 0 | 0 | STD5.60 |
| 2025-12-25 04:16:24 | 22 | 19.00 | 0.110000 | 41.649648 | 41.62752893 | 0 | 0 | 0 | 0 | 0 | 0 | 0 | 0 | STD5.60 |
| 2025-12-25 04:11:22 | 20 | 17.90 | 0.100000 | 41.649648 | 41.62752893 | 0 | 0 | 0 | 0 | 0 | 0 | 0 | 0 | STD5.60 |
| 2025-12-25 04:06:20 | 15 | 18.80 | 0.075000 | 41.649648 | 41.62752893 | 0 | 0 | 0 | 0 | 0 | 0 | 0 | 0 | STD5.60 |
| 2025-12-25 04:01:18 | 15 | 18.70 | 0.075000 | 41.649648 | 41.62752893 | 0 | 0 | 0 | 0 | 0 | 0 | 0 | 0 | STD5.60 |
| 2025-12-25 03:56:16 | 14 | 18.00 | 0.070000 | 41.649648 | 41.62752893 | 0 | 0 | 0 | 0 | 0 | 0 | 0 | 0 | STD5.60 |
| 2025-12-25 03:51:14 | 18 | 20.00 | 0.090000 | 41.649648 | 41.62752893 | 0 | 0 | 0 | 0 | 0 | 0 | 0 | 0 | STD5.60 |
| 2025-12-25 03:46:10 | 23 | 18.70 | 0.115000 | 41.649648 | 41.62752893 | 0 | 0 | 0 | 0 | 0 | 0 | 0 | 0 | STD5.60 |
| 2025-12-25 03:41:08 | 11 | 16.50 | 0.055000 | 41.649648 | 41.62752893 | 0 | 0 | 0 | 0 | 0 | 0 | 0 | 0 | STD5.60 |
| 2025-12-25 03:36:06 | 20 | 17.60 | 0.100000 | 41.649648 | 41.62752893 | 0 | 0 | 0 | 0 | 0 | 0 | 0 | 0 | STD5.60 |
| 2025-12-25 03:31:04 | 15 | 19.80 | 0.075000 | 41.649648 | 41.62752893 | 0 | 0 | 0 | 0 | 0 | 0 | 0 | 0 | STD5.60 |
| 2025-12-25 03:26:02 | 19 | 19.70 | 0.095000 | 41.649648 | 41.62752893 | 0 | 0 | 0 | 0 | 0 | 0 | 0 | 0 | STD5.60 |
| 2025-12-25 03:21:00 | 20 | 17.10 | 0.100000 | 41.649648 | 41.62752893 | 0 | 0 | 0 | 0 | 0 | 0 | 0 | 0 | STD5.60 |
| 2025-12-25 03:15:59 | 19 | 16.50 | 0.095000 | 41.649648 | 41.62752893 | 0 | 0 | 0 | 0 | 0 | 0 | 0 | 0 | STD5.60 |
| 2025-12-25 03:10:56 | 16 | 16.70 | 0.080000 | 41.649648 | 41.62752893 | 0 | 0 | 0 | 0 | 0 | 0 | 0 | 0 | STD5.60 |
| 2025-12-25 03:05:54 | 17 | 18.50 | 0.085000 | 41.649648 | 41.62752893 | 0 | 0 | 0 | 0 | 0 | 0 | 0 | 0 | STD5.60 |
| 2025-12-25 03:00:52 | 13 | 18.70 | 0.065000 | 41.649648 | 41.62752893 | 0 | 0 | 0 | 0 | 0 | 0 | 0 | 0 | STD5.60 |
| 2025-12-25 02:55:50 | 16 | 16.00 | 0.080000 | 41.649648 | 41.62752893 | 0 | 0 | 0 | 0 | 0 | 0 | 0 | 0 | STD5.60 |
| 2025-12-25 02:50:48 | 17 | 16.40 | 0.085000 | 41.649648 | 41.62752893 | 0 | 0 | 0 | 0 | 0 | 0 | 0 | 0 | STD5.60 |
| 2025-12-25 02:45:42 | 15 | 17.20 | 0.075000 | 41.649648 | 41.62752893 | 0 | 0 | 0 | 0 | 0 | 0 | 0 | 0 | STD5.60 |
| 2025-12-25 02:40:40 | 10 | 17.30 | 0.050000 | 41.649648 | 41.62752893 | 0 | 0 | 0 | 0 | 0 | 0 | 0 | 0 | STD5.60 |
| 2025-12-25 02:35:38 | 20 | 17.70 | 0.100000 | 41.649648 | 41.62752893 | 0 | 0 | 0 | 0 | 0 | 0 | 0 | 0 | STD5.60 |
| 2025-12-25 02:30:35 | 18 | 16.50 | 0.090000 | 41.649648 | 41.62752893 | 0 | 0 | 0 | 0 | 0 | 0 | 0 | 0 | STD5.60 |
| 2025-12-25 02:25:34 | 20 | 16.70 | 0.100000 | 41.649648 | 41.62752893 | 0 | 0 | 0 | 0 | 0 | 0 | 0 | 0 | STD5.60 |
| 2025-12-25 02:20:32 | 15 | 19.90 | 0.075000 | 41.649648 | 41.62752893 | 0 | 0 | 0 | 0 | 0 | 0 | 0 | 0 | STD5.60 |
| 2025-12-25 02:15:30 | 18 | 19.40 | 0.090000 | 41.649648 | 41.62752893 | 0 | 0 | 0 | 0 | 0 | 0 | 0 | 0 | STD5.60 |
| 2025-12-25 02:10:28 | 19 | 17.20 | 0.095000 | 41.649648 | 41.62752893 | 0 | 0 | 0 | 0 | 0 | 0 | 0 | 0 | STD5.60 |
| 2025-12-25 02:05:26 | 21 | 18.30 | 0.105000 | 41.649648 | 41.62752893 | 0 | 0 | 0 | 0 | 0 | 0 | 0 | 0 | STD5.60 |
| 2025-12-25 02:00:24 | 18 | 17.20 | 0.090000 | 41.649648 | 41.62752893 | 0 | 0 | 0 | 0 | 0 | 0 | 0 | 0 | STD5.60 |
| 2025-12-25 01:55:22 | 11 | 17.80 | 0.055000 | 41.649648 | 41.62752893 | 0 | 0 | 0 | 0 | 0 | 0 | 0 | 0 | STD5.60 |
| 2025-12-25 01:50:19 | 20 | 17.80 | 0.100000 | 41.649648 | 41.62752893 | 0 | 0 | 0 | 0 | 0 | 0 | 0 | 0 | STD5.60 |
| 2025-12-25 01:45:15 | 17 | 15.80 | 0.085000 | 41.649648 | 41.62752893 | 0 | 0 | 0 | 0 | 0 | 0 | 0 | 0 | STD5.60 |
| 2025-12-25 01:40:13 | 16 | 17.70 | 0.080000 | 41.649648 | 41.62752893 | 0 | 0 | 0 | 0 | 0 | 0 | 0 | 0 | STD5.60 |
| 2025-12-25 01:35:11 | 21 | 19.90 | 0.105000 | 41.649648 | 41.62752893 | 0 | 0 | 0 | 0 | 0 | 0 | 0 | 0 | STD5.60 |
| 2025-12-25 01:30:08 | 20 | 19.30 | 0.100000 | 41.649648 | 41.62752893 | 0 | 0 | 0 | 0 | 0 | 0 | 0 | 0 | STD5.60 |
| 2025-12-25 01:25:06 | 19 | 16.80 | 0.095000 | 41.649648 | 41.62752893 | 0 | 0 | 0 | 0 | 0 | 0 | 0 | 0 | STD5.60 |
| 2025-12-25 01:20:05 | 24 | 16.20 | 0.120000 | 41.649648 | 41.62752893 | 0 | 0 | 0 | 0 | 0 | 0 | 0 | 0 | STD5.60 |
| 2025-12-25 01:15:04 | 19 | 17.70 | 0.095000 | 41.649648 | 41.62752893 | 0 | 0 | 0 | 0 | 0 | 0 | 0 | 0 | STD5.60 |
| 2025-12-25 01:10:00 | 16 | 17.60 | 0.080000 | 41.649648 | 41.62752893 | 0 | 0 | 0 | 0 | 0 | 0 | 0 | 0 | STD5.60 |
| 2025-12-25 01:04:59 | 24 | 17.50 | 0.120000 | 41.649648 | 41.62752893 | 0 | 0 | 0 | 0 | 0 | 0 | 0 | 0 | STD5.60 |
| 2025-12-25 00:59:56 | 23 | 16.60 | 0.115000 | 41.649648 | 41.62752893 | 0 | 0 | 0 | 0 | 0 | 0 | 0 | 0 | STD5.60 |
| 2025-12-25 00:54:54 | 18 | 15.20 | 0.090000 | 41.649648 | 41.62752893 | 0 | 0 | 0 | 0 | 0 | 0 | 0 | 0 | STD5.60 |
| 2025-12-25 00:49:52 | 22 | 17.20 | 0.110000 | 41.649648 | 41.62752893 | 0 | 0 | 0 | 0 | 0 | 0 | 0 | 0 | STD5.60 |
| 2025-12-25 00:44:49 | 20 | 19.00 | 0.100000 | 41.649648 | 41.62752893 | 0 | 0 | 0 | 0 | 0 | 0 | 0 | 0 | STD5.60 |
| 2025-12-25 00:39:46 | 20 | 18.50 | 0.100000 | 41.649648 | 41.62752893 | 0 | 0 | 0 | 0 | 0 | 0 | 0 | 0 | STD5.60 |
| 2025-12-25 00:34:45 | 13 | 19.10 | 0.065000 | 41.649648 | 41.62752893 | 0 | 0 | 0 | 0 | 0 | 0 | 0 | 0 | STD5.60 |
| 2025-12-25 00:29:42 | 10 | 18.70 | 0.050000 | 41.649648 | 41.62752893 | 0 | 0 | 0 | 0 | 0 | 0 | 0 | 0 | STD5.60 |
| 2025-12-25 00:24:40 | 21 | 17.70 | 0.105000 | 41.649648 | 41.62752893 | 0 | 0 | 0 | 0 | 0 | 0 | 0 | 0 | STD5.60 |
| 2025-12-25 00:19:38 | 22 | 17.40 | 0.110000 | 41.649648 | 41.62752893 | 0 | 0 | 0 | 0 | 0 | 0 | 0 | 0 | STD5.60 |
| 2025-12-25 00:14:36 | 15 | 17.50 | 0.075000 | 41.649648 | 41.62752893 | 0 | 0 | 0 | 0 | 0 | 0 | 0 | 0 | STD5.60 |
| 2025-12-25 00:09:34 | 18 | 18.30 | 0.090000 | 41.649648 | 41.62752893 | 0 | 0 | 0 | 0 | 0 | 0 | 0 | 0 | STD5.60 |
| 2025-12-25 00:04:32 | 12 | 17.40 | 0.060000 | 41.649648 | 41.62752893 | 0 | 0 | 0 | 0 | 0 | 0 | 0 | 0 | STD5.60 |
| 2025-12-24 23:59:30 | 19 | 16.60 | 0.095000 | 41.649648 | 41.62752893 | 0 | 0 | 0 | 0 | 0 | 0 | 0 | 0 | STD5.60 |
| 2025-12-24 23:54:28 | 20 | 17.00 | 0.100000 | 41.649648 | 41.62752893 | 0 | 0 | 0 | 0 | 0 | 0 | 0 | 0 | STD5.60 |
| 2025-12-24 23:49:26 | 15 | 15.20 | 0.075000 | 41.649648 | 41.62752893 | 0 | 0 | 0 | 0 | 0 | 0 | 0 | 0 | STD5.60 |
| 2025-12-24 23:44:22 | 8 | 16.70 | 0.040000 | 41.649648 | 41.62752893 | 0 | 0 | 0 | 0 | 0 | 0 | 0 | 0 | STD5.60 |
| 2025-12-24 23:39:20 | 13 | 19.50 | 0.065000 | 41.649648 | 41.62752893 | 0 | 0 | 0 | 0 | 0 | 0 | 0 | 0 | STD5.60 |
| 2025-12-24 23:34:18 | 28 | 19.60 | 0.140000 | 41.649648 | 41.62752893 | 0 | 0 | 0 | 0 | 0 | 0 | 0 | 0 | STD5.60 |
| 2025-12-24 23:29:16 | 15 | 18.70 | 0.075000 | 41.649648 | 41.62752893 | 0 | 0 | 0 | 0 | 0 | 0 | 0 | 0 | STD5.60 |
| 2025-12-24 23:24:15 | 14 | 19.00 | 0.070000 | 41.649648 | 41.62752893 | 0 | 0 | 0 | 0 | 0 | 0 | 0 | 0 | STD5.60 |
| 2025-12-24 23:19:13 | 13 | 19.00 | 0.065000 | 41.649648 | 41.62752893 | 0 | 0 | 0 | 0 | 0 | 0 | 0 | 0 | STD5.60 |
| 2025-12-24 23:14:11 | 11 | 18.90 | 0.055000 | 41.649648 | 41.62752893 | 0 | 0 | 0 | 0 | 0 | 0 | 0 | 0 | STD5.60 |
| 2025-12-24 23:09:09 | 21 | 19.30 | 0.105000 | 41.649648 | 41.62752893 | 0 | 0 | 0 | 0 | 0 | 0 | 0 | 0 | STD5.60 |
| 2025-12-24 23:04:07 | 20 | 20.10 | 0.100000 | 41.649648 | 41.62752893 | 0 | 0 | 0 | 0 | 0 | 0 | 0 | 0 | STD5.60 |
| 2025-12-24 22:59:05 | 24 | 20.40 | 0.120000 | 41.649648 | 41.62752893 | 0 | 0 | 0 | 0 | 0 | 0 | 0 | 0 | STD5.60 |
| 2025-12-24 22:54:04 | 13 | 18.50 | 0.065000 | 41.649648 | 41.62752893 | 0 | 0 | 0 | 0 | 0 | 0 | 0 | 0 | STD5.60 |
| 2025-12-24 22:49:01 | 17 | 16.20 | 0.085000 | 41.649648 | 41.62752893 | 0 | 0 | 0 | 0 | 0 | 0 | 0 | 0 | STD5.60 |
| 2025-12-24 22:43:57 | 9 | 15.60 | 0.045000 | 41.649648 | 41.62752893 | 0 | 0 | 0 | 0 | 0 | 0 | 0 | 0 | STD5.60 |
| 2025-12-24 22:38:55 | 15 | 16.20 | 0.075000 | 41.649648 | 41.62752893 | 0 | 0 | 0 | 0 | 0 | 0 | 0 | 0 | STD5.60 |
| 2025-12-24 22:33:53 | 19 | 17.10 | 0.095000 | 41.649648 | 41.62752893 | 0 | 0 | 0 | 0 | 0 | 0 | 0 | 0 | STD5.60 |
| 2025-12-24 22:28:51 | 22 | 17.50 | 0.110000 | 41.649648 | 41.62752893 | 0 | 0 | 0 | 0 | 0 | 0 | 0 | 0 | STD5.60 |
| 2025-12-24 22:23:49 | 18 | 18.70 | 0.090000 | 41.649648 | 41.62752893 | 0 | 0 | 0 | 0 | 0 | 0 | 0 | 0 | STD5.60 |
| 2025-12-24 22:18:47 | 27 | 18.50 | 0.135000 | 41.649648 | 41.62752893 | 0 | 0 | 0 | 0 | 0 | 0 | 0 | 0 | STD5.60 |
| 2025-12-24 22:13:45 | 18 | 16.60 | 0.090000 | 41.649648 | 41.62752893 | 0 | 0 | 0 | 0 | 0 | 0 | 0 | 0 | STD5.60 |
| 2025-12-24 22:08:43 | 18 | 18.00 | 0.090000 | 41.649648 | 41.62752893 | 0 | 0 | 0 | 0 | 0 | 0 | 0 | 0 | STD5.60 |
| 2025-12-24 22:03:41 | 21 | 17.70 | 0.105000 | 41.649648 | 41.62752893 | 0 | 0 | 0 | 0 | 0 | 0 | 0 | 0 | STD5.60 |
| 2025-12-24 21:58:39 | 17 | 15.60 | 0.085000 | 41.649648 | 41.62752893 | 0 | 0 | 0 | 0 | 0 | 0 | 0 | 0 | STD5.60 |
| 2025-12-24 21:53:37 | 9 | 16.40 | 0.045000 | 41.649648 | 41.62752893 | 0 | 0 | 0 | 0 | 0 | 0 | 0 | 0 | STD5.60 |
| 2025-12-24 21:48:35 | 18 | 19.20 | 0.090000 | 41.649648 | 41.62752893 | 0 | 0 | 0 | 0 | 0 | 0 | 0 | 0 | STD5.60 |
| 2025-12-24 21:43:31 | 28 | 18.30 | 0.140000 | 41.649648 | 41.62752893 | 0 | 0 | 0 | 0 | 0 | 0 | 0 | 0 | STD5.60 |
| 2025-12-24 21:38:30 | 14 | 18.40 | 0.070000 | 41.649648 | 41.62752893 | 0 | 0 | 0 | 0 | 0 | 0 | 0 | 0 | STD5.60 |
| 2025-12-24 21:33:27 | 21 | 20.00 | 0.105000 | 41.649648 | 41.62752893 | 0 | 0 | 0 | 0 | 0 | 0 | 0 | 0 | STD5.60 |
| 2025-12-24 21:28:25 | 23 | 19.20 | 0.115000 | 41.649648 | 41.62752893 | 0 | 0 | 0 | 0 | 0 | 0 | 0 | 0 | STD5.60 |
| 2025-12-24 21:23:23 | 26 | 18.50 | 0.130000 | 41.649648 | 41.62752893 | 0 | 0 | 0 | 0 | 0 | 0 | 0 | 0 | STD5.60 |
| 2025-12-24 21:18:21 | 17 | 17.90 | 0.085000 | 41.649648 | 41.62752893 | 0 | 0 | 0 | 0 | 0 | 0 | 0 | 0 | STD5.60 |
| 2025-12-24 21:13:19 | 12 | 17.90 | 0.060000 | 41.649648 | 41.62752893 | 0 | 0 | 0 | 0 | 0 | 0 | 0 | 0 | STD5.60 |
| 2025-12-24 21:08:17 | 21 | 16.50 | 0.105000 | 41.649648 | 41.62752893 | 0 | 0 | 0 | 0 | 0 | 0 | 0 | 0 | STD5.60 |
| 2025-12-24 21:03:15 | 14 | 18.30 | 0.070000 | 41.649648 | 41.62752893 | 0 | 0 | 0 | 0 | 0 | 0 | 0 | 0 | STD5.60 |
| 2025-12-24 20:58:13 | 25 | 20.40 | 0.125000 | 41.649648 | 41.62752893 | 0 | 0 | 0 | 0 | 0 | 0 | 0 | 0 | STD5.60 |
| 2025-12-24 20:53:11 | 21 | 18.80 | 0.105000 | 41.649648 | 41.62752893 | 0 | 0 | 0 | 0 | 0 | 0 | 0 | 0 | STD5.60 |
| 2025-12-24 20:48:08 | 16 | 16.60 | 0.080000 | 41.649648 | 41.62752893 | 0 | 0 | 0 | 0 | 0 | 0 | 0 | 0 | STD5.60 |
| 2025-12-24 20:43:04 | 13 | 15.40 | 0.065000 | 41.649648 | 41.62752893 | 0 | 0 | 0 | 0 | 0 | 0 | 0 | 0 | STD5.60 |
| 2025-12-24 20:38:02 | 14 | 16.90 | 0.070000 | 41.649648 | 41.62752893 | 0 | 0 | 0 | 0 | 0 | 0 | 0 | 0 | STD5.60 |
| 2025-12-24 20:32:59 | 23 | 18.10 | 0.115000 | 41.649648 | 41.62752893 | 0 | 0 | 0 | 0 | 0 | 0 | 0 | 0 | STD5.60 |
| 2025-12-24 20:27:57 | 21 | 18.10 | 0.105000 | 41.649648 | 41.62752893 | 0 | 0 | 0 | 0 | 0 | 0 | 0 | 0 | STD5.60 |
| 2025-12-24 20:22:56 | 15 | 19.30 | 0.075000 | 41.649648 | 41.62752893 | 0 | 0 | 0 | 0 | 0 | 0 | 0 | 0 | STD5.60 |
| 2025-12-24 20:17:54 | 21 | 18.90 | 0.105000 | 41.649648 | 41.62752893 | 0 | 0 | 0 | 0 | 0 | 0 | 0 | 0 | STD5.60 |
| 2025-12-24 20:12:51 | 17 | 18.50 | 0.085000 | 41.649648 | 41.62752893 | 0 | 0 | 0 | 0 | 0 | 0 | 0 | 0 | STD5.60 |
| 2025-12-24 20:07:49 | 22 | 18.00 | 0.110000 | 41.649648 | 41.62752893 | 0 | 0 | 0 | 0 | 0 | 0 | 0 | 0 | STD5.60 |
| 2025-12-24 20:02:47 | 17 | 17.30 | 0.085000 | 41.649648 | 41.62752893 | 0 | 0 | 0 | 0 | 0 | 0 | 0 | 0 | STD5.60 |
| 2025-12-24 19:57:45 | 17 | 17.90 | 0.085000 | 41.649648 | 41.62752893 | 0 | 0 | 0 | 0 | 0 | 0 | 0 | 0 | STD5.60 |
| 2025-12-24 19:52:43 | 20 | 17.80 | 0.100000 | 41.649648 | 41.62752893 | 0 | 0 | 0 | 0 | 0 | 0 | 0 | 0 | STD5.60 |
| 2025-12-24 19:47:41 | 23 | 17.10 | 0.115000 | 41.649648 | 41.62752893 | 0 | 0 | 0 | 0 | 0 | 0 | 0 | 0 | STD5.60 |
| 2025-12-24 19:42:38 | 16 | 18.00 | 0.080000 | 41.649648 | 41.62752893 | 0 | 0 | 0 | 0 | 0 | 0 | 0 | 0 | STD5.60 |
| 2025-12-24 19:37:36 | 25 | 18.50 | 0.125000 | 41.649648 | 41.62752893 | 0 | 0 | 0 | 0 | 0 | 0 | 0 | 0 | STD5.60 |
| 2025-12-24 19:32:34 | 24 | 17.70 | 0.120000 | 41.649648 | 41.62752893 | 0 | 0 | 0 | 0 | 0 | 0 | 0 | 0 | STD5.60 |
| 2025-12-24 19:27:31 | 22 | 18.90 | 0.110000 | 41.649648 | 41.62752893 | 0 | 0 | 0 | 0 | 0 | 0 | 0 | 0 | STD5.60 |
| 2025-12-24 19:22:30 | 10 | 17.40 | 0.050000 | 41.649648 | 41.62752893 | 0 | 0 | 0 | 0 | 0 | 0 | 0 | 0 | STD5.60 |
| 2025-12-24 19:17:28 | 16 | 16.10 | 0.080000 | 41.649648 | 41.62752893 | 0 | 0 | 0 | 0 | 0 | 0 | 0 | 0 | STD5.60 |
| 2025-12-24 19:12:26 | 19 | 17.60 | 0.095000 | 41.649648 | 41.62752893 | 0 | 0 | 0 | 0 | 0 | 0 | 0 | 0 | STD5.60 |
| 2025-12-24 19:07:24 | 23 | 17.90 | 0.115000 | 41.649648 | 41.62752893 | 0 | 0 | 0 | 0 | 0 | 0 | 0 | 0 | STD5.60 |
| 2025-12-24 19:02:22 | 14 | 18.00 | 0.070000 | 41.649648 | 41.62752893 | 0 | 0 | 0 | 0 | 0 | 0 | 0 | 0 | STD5.60 |
| 2025-12-24 18:57:20 | 20 | 19.40 | 0.100000 | 41.649648 | 41.62752893 | 0 | 0 | 0 | 0 | 0 | 0 | 0 | 0 | STD5.60 |
| 2025-12-24 18:52:18 | 22 | 19.20 | 0.110000 | 41.649648 | 41.62752893 | 0 | 0 | 0 | 0 | 0 | 0 | 0 | 0 | STD5.60 |
| 2025-12-24 18:47:19 | 24 | 19.00 | 0.120000 | 41.649648 | 41.62752893 | 0 | 0 | 0 | 0 | 0 | 0 | 0 | 0 | STD5.60 |
| 2025-12-24 18:42:13 | 25 | 19.90 | 0.125000 | 41.649648 | 41.62752893 | 0 | 0 | 0 | 0 | 0 | 0 | 0 | 0 | STD5.60 |
| 2025-12-24 18:37:13 | 23 | 18.20 | 0.115000 | 41.649648 | 41.62752893 | 0 | 0 | 0 | 0 | 0 | 0 | 0 | 0 | STD5.60 |
| 2025-12-24 18:32:08 | 16 | 16.70 | 0.080000 | 41.649648 | 41.62752893 | 0 | 0 | 0 | 0 | 0 | 0 | 0 | 0 | STD5.60 |
| 2025-12-24 18:27:05 | 15 | 17.30 | 0.075000 | 41.649648 | 41.62752893 | 0 | 0 | 0 | 0 | 0 | 0 | 0 | 0 | STD5.60 |
| 2025-12-24 18:22:04 | 14 | 18.00 | 0.070000 | 41.649648 | 41.62752893 | 0 | 0 | 0 | 0 | 0 | 0 | 0 | 0 | STD5.60 |
| 2025-12-24 18:17:02 | 23 | 17.70 | 0.115000 | 41.649648 | 41.62752893 | 0 | 0 | 0 | 0 | 0 | 0 | 0 | 0 | STD5.60 |
| 2025-12-24 18:12:00 | 16 | 19.50 | 0.080000 | 41.649648 | 41.62752893 | 0 | 0 | 0 | 0 | 0 | 0 | 0 | 0 | STD5.60 |
| 2025-12-24 18:06:57 | 22 | 20.00 | 0.110000 | 41.649648 | 41.62752893 | 0 | 0 | 0 | 0 | 0 | 0 | 0 | 0 | STD5.60 |
| 2025-12-24 18:01:55 | 16 | 17.70 | 0.080000 | 41.649648 | 41.62752893 | 0 | 0 | 0 | 0 | 0 | 0 | 0 | 0 | STD5.60 |
| 2025-12-24 17:56:53 | 23 | 17.50 | 0.115000 | 41.649648 | 41.62752893 | 0 | 0 | 0 | 0 | 0 | 0 | 0 | 0 | STD5.60 |
| 2025-12-24 17:51:52 | 19 | 17.50 | 0.095000 | 41.649648 | 41.62752893 | 0 | 0 | 0 | 0 | 0 | 0 | 0 | 0 | STD5.60 |
| 2025-12-24 17:46:50 | 26 | 16.70 | 0.130000 | 41.649648 | 41.62752893 | 0 | 0 | 0 | 0 | 0 | 0 | 0 | 0 | STD5.60 |
| 2025-12-24 17:41:46 | 11 | 16.70 | 0.055000 | 41.649648 | 41.62752893 | 0 | 0 | 0 | 0 | 0 | 0 | 0 | 0 | STD5.60 |
| 2025-12-24 17:36:47 | 16 | 17.80 | 0.080000 | 41.649648 | 41.62752893 | 0 | 0 | 0 | 0 | 0 | 0 | 0 | 0 | STD5.60 |
| 2025-12-24 17:31:42 | 18 | 17.20 | 0.090000 | 41.649648 | 41.62752893 | 0 | 0 | 0 | 0 | 0 | 0 | 0 | 0 | STD5.60 |
| 2025-12-24 17:26:40 | 17 | 16.30 | 0.085000 | 41.649648 | 41.62752893 | 0 | 0 | 0 | 0 | 0 | 0 | 0 | 0 | STD5.60 |
| 2025-12-24 17:21:38 | 20 | 15.30 | 0.100000 | 41.649648 | 41.62752893 | 0 | 0 | 0 | 0 | 0 | 0 | 0 | 0 | STD5.60 |
| 2025-12-24 17:16:36 | 6 | 15.70 | 0.030000 | 41.649648 | 41.62752893 | 0 | 0 | 0 | 0 | 0 | 0 | 0 | 0 | STD5.60 |
| 2025-12-24 17:11:38 | 25 | 17.80 | 0.125000 | 41.649648 | 41.62752893 | 0 | 0 | 0 | 0 | 0 | 0 | 0 | 0 | STD5.60 |
| 2025-12-24 17:06:32 | 14 | 18.00 | 0.070000 | 41.649648 | 41.62752893 | 0 | 0 | 0 | 0 | 0 | 0 | 0 | 0 | STD5.60 |
| 2025-12-24 17:01:30 | 17 | 18.30 | 0.085000 | 41.649648 | 41.62752893 | 0 | 0 | 0 | 0 | 0 | 0 | 0 | 0 | STD5.60 |
| 2025-12-24 16:56:28 | 19 | 17.30 | 0.095000 | 41.649648 | 41.62752893 | 0 | 0 | 0 | 0 | 0 | 0 | 0 | 0 | STD5.60 |
| 2025-12-24 16:51:26 | 17 | 17.50 | 0.085000 | 41.649648 | 41.62752893 | 0 | 0 | 0 | 0 | 0 | 0 | 0 | 0 | STD5.60 |
| 2025-12-24 16:46:24 | 22 | 19.50 | 0.110000 | 41.649648 | 41.62752893 | 0 | 0 | 0 | 0 | 0 | 0 | 0 | 0 | STD5.60 |
| 2025-12-24 16:41:20 | 26 | 19.20 | 0.130000 | 41.649648 | 41.62752893 | 0 | 0 | 0 | 0 | 0 | 0 | 0 | 0 | STD5.60 |
| 2025-12-24 16:36:18 | 16 | 17.90 | 0.080000 | 41.649648 | 41.62752893 | 0 | 0 | 0 | 0 | 0 | 0 | 0 | 0 | STD5.60 |
| 2025-12-24 16:31:16 | 16 | 19.00 | 0.080000 | 41.649648 | 41.62752893 | 0 | 0 | 0 | 0 | 0 | 0 | 0 | 0 | STD5.60 |
| 2025-12-24 16:26:15 | 25 | 18.70 | 0.125000 | 41.649648 | 41.62752893 | 0 | 0 | 0 | 0 | 0 | 0 | 0 | 0 | STD5.60 |
| 2025-12-24 16:21:12 | 14 | 17.00 | 0.070000 | 41.649648 | 41.62752893 | 0 | 0 | 0 | 0 | 0 | 0 | 0 | 0 | STD5.60 |
| 2025-12-24 16:16:10 | 18 | 16.90 | 0.090000 | 41.649648 | 41.62752893 | 0 | 0 | 0 | 0 | 0 | 0 | 0 | 0 | STD5.60 |
| 2025-12-24 16:11:08 | 15 | 17.00 | 0.075000 | 41.649648 | 41.62752893 | 0 | 0 | 0 | 0 | 0 | 0 | 0 | 0 | STD5.60 |
| 2025-12-24 16:06:06 | 16 | 17.20 | 0.080000 | 41.649648 | 41.62752893 | 0 | 0 | 0 | 0 | 0 | 0 | 0 | 0 | STD5.60 |
| 2025-12-24 16:01:04 | 14 | 15.60 | 0.070000 | 41.649648 | 41.62752893 | 0 | 0 | 0 | 0 | 0 | 0 | 0 | 0 | STD5.60 |
| 2025-12-24 15:56:02 | 17 | 16.50 | 0.085000 | 41.649648 | 41.62752893 | 0 | 0 | 0 | 0 | 0 | 0 | 0 | 0 | STD5.60 |
| 2025-12-24 15:51:00 | 15 | 18.10 | 0.075000 | 41.649648 | 41.62752893 | 0 | 0 | 0 | 0 | 0 | 0 | 0 | 0 | STD5.60 |
| 2025-12-24 15:45:58 | 23 | 18.90 | 0.115000 | 41.649648 | 41.62752893 | 0 | 0 | 0 | 0 | 0 | 0 | 0 | 0 | STD5.60 |
| 2025-12-24 15:40:55 | 16 | 18.60 | 0.080000 | 41.649648 | 41.62752893 | 0 | 0 | 0 | 0 | 0 | 0 | 0 | 0 | STD5.60 |
| 2025-12-24 15:35:51 | 20 | 18.00 | 0.100000 | 41.649648 | 41.62752893 | 0 | 0 | 0 | 0 | 0 | 0 | 0 | 0 | STD5.60 |
| 2025-12-24 15:30:49 | 20 | 17.00 | 0.100000 | 41.649648 | 41.62752893 | 0 | 0 | 0 | 0 | 0 | 0 | 0 | 0 | STD5.60 |
| 2025-12-24 15:25:47 | 15 | 17.10 | 0.075000 | 41.649648 | 41.62752893 | 0 | 0 | 0 | 0 | 0 | 0 | 0 | 0 | STD5.60 |
| 2025-12-24 15:20:45 | 25 | 18.60 | 0.125000 | 41.649648 | 41.62752893 | 0 | 0 | 0 | 0 | 0 | 0 | 0 | 0 | STD5.60 |
| 2025-12-24 15:15:43 | 19 | 17.90 | 0.095000 | 41.649648 | 41.62752893 | 0 | 0 | 0 | 0 | 0 | 0 | 0 | 0 | STD5.60 |
| 2025-12-24 15:10:41 | 22 | 16.10 | 0.110000 | 41.649648 | 41.62752893 | 0 | 0 | 0 | 0 | 0 | 0 | 0 | 0 | STD5.60 |
| 2025-12-24 15:05:39 | 14 | 15.90 | 0.070000 | 41.649648 | 41.62752893 | 0 | 0 | 0 | 0 | 0 | 0 | 0 | 0 | STD5.60 |
| 2025-12-24 15:00:37 | 21 | 18.00 | 0.105000 | 41.649648 | 41.62752893 | 0 | 0 | 0 | 0 | 0 | 0 | 0 | 0 | STD5.60 |
| 2025-12-24 14:55:35 | 14 | 18.60 | 0.070000 | 41.649648 | 41.62752893 | 0 | 0 | 0 | 0 | 0 | 0 | 0 | 0 | STD5.60 |
| 2025-12-24 14:50:32 | 19 | 19.20 | 0.095000 | 41.649648 | 41.62752893 | 0 | 0 | 0 | 0 | 0 | 0 | 0 | 0 | STD5.60 |
| 2025-12-24 14:45:31 | 19 | 21.10 | 0.095000 | 41.649648 | 41.62752893 | 0 | 0 | 0 | 0 | 0 | 0 | 0 | 0 | STD5.60 |
| 2025-12-24 14:40:27 | 19 | 21.50 | 0.095000 | 41.649648 | 41.62752893 | 0 | 0 | 0 | 0 | 0 | 0 | 0 | 0 | STD5.60 |
| 2025-12-24 14:35:25 | 21 | 19.00 | 0.105000 | 41.649648 | 41.62752893 | 0 | 0 | 0 | 0 | 0 | 0 | 0 | 0 | STD5.60 |
| 2025-12-24 14:30:23 | 14 | 18.60 | 0.070000 | 41.649648 | 41.62752893 | 0 | 0 | 0 | 0 | 0 | 0 | 0 | 0 | STD5.60 |
| 2025-12-24 14:25:21 | 19 | 20.20 | 0.095000 | 41.649648 | 41.62752893 | 0 | 0 | 0 | 0 | 0 | 0 | 0 | 0 | STD5.60 |
| 2025-12-24 14:20:19 | 14 | 17.20 | 0.070000 | 41.649648 | 41.62752893 | 0 | 0 | 0 | 0 | 0 | 0 | 0 | 0 | STD5.60 |
| 2025-12-24 14:15:17 | 10 | 16.60 | 0.050000 | 41.649648 | 41.62752893 | 0 | 0 | 0 | 0 | 0 | 0 | 0 | 0 | STD5.60 |
| 2025-12-24 14:10:16 | 23 | 19.20 | 0.115000 | 41.649648 | 41.62752893 | 0 | 0 | 0 | 0 | 0 | 0 | 0 | 0 | STD5.60 |